LIZE 1 (49815 NORAD) Tracking and Keplerian Element Data
This shows tracking and keplerian element data for the satellite.
Feedback or suggestion? Click here.
Element | Value |
Catalog | 49815 |
Name | LIZE 1 |
Epoch Orbit | 2510 |
Epoch Day | 140.90038606 |
Epoch Year | 2022 |
RAAN | 216.8273 |
Inclination | 97.3843 |
Eccentricity | 0.0013843 |
Argument of Perigee | 83.7741 |
Mean Anonmoly | 36.0964 |
Mean Motion | 15.30459554 |
Decay Rate | 0.00025934 |
L1 | 1 49815U 21117D 22140.90038606 .00025934 00000+0 87856-3 0 9999 |
L2 | 2 49815 97.3843 216.8273 0013843 83.7741 36.0964 15.30459554 25108 |
Live tracking and technical data element details for LIZE 1 (NORAD 49815). LIZE 1 can be tracked NOW for your location showing map with azimuth and elevation plus other details from your city location.
Track the satellite on the map from your city or location and see movement details for azimuth, elevation, latitude, longitude, range, height, and movement on the map or in text.
IsCatalogInMostPopularTable: catalog: 49815, numindb: 22
Update: records affected: 1
GetName: 49815 LIZE 1
Hit Count: updated at: Mon, 23 May 2022 20:05:02 GMT